This demonstration page uses our WeatherBlox Daily Observations layout. Learn more.

Left ArrowRight Arrow

Hourly Observations for February 20, 2015

Temp ( °F °C ) Dew Point ( °F °C ) Humidity (%) Winds ( mph kmh ) Pressure ( in mb ) Visibility ( mi km ) Precip ( " mm )
12:01 am 00:01 Cloudy with Mist and Fog 50 10 47 8.3 89 89 NE 3 6 30.09 1019 1 1 0.00 0.00
12:11 am 00:11 Cloudy with Fog 50 10 48 8.9 93 93 NNE 3 6 30.09 1019 0 0 0.00 0.00
12:15 am 00:15 Cloudy with Fog 50 10 48 8.9 93 93 NNE 6 9 30.09 1019 1 1 0.00 0.00
12:25 am 00:25 Cloudy with Fog 50 10 48 8.9 93 93 N 3 6 30.09 1019 0 0 0.00 0.00
12:53 am 00:53 Cloudy with Fog 50 10 50 10 100 100 NNE 3 6 30.08 1019 5 8 0.00 0.00
1:53 am 01:53 Mostly Cloudy with Fog 51 10.6 50 10 96 96 NW 3 6 30.08 1019 0 0 0.00 0.00
2:53 am 02:53 Mostly Cloudy with Fog 49 9.4 48 8.9 97 97 Calm 30.07 1018 0 0 0.00 0.00
3:51 am 03:51 Clear with Fog 46 8 45 7 93 93 N 3 6 30.09 1019 0 0 0.00 0.00
3:53 am 03:53 Clear with Fog 46 7.8 45 7.2 96 96 N 5 7 30.07 1018 1 1 0.00 0.00
4:01 am 04:01 Clear with Mist and Fog 47 8.3 44 6.7 90 90 NW 5 7 30.06 1018 2 3 0.00 0.00
4:03 am 04:03 Clear with Mist and Fog 46 8 45 7 93 93 NNW 5 7 30.06 1018 3 5 0.00 0.00
4:23 am 04:23 Clear with Mist and Fog 46 7.8 44 6.7 93 93 NNW 3 6 30.06 1018 2 2 0.00 0.00
4:26 am 04:26 Clear with Mist and Fog 45 7.2 44 6.7 97 97 N 3 6 30.06 1018 1 1 0.00 0.00
4:42 am 04:42 Clear with Fog 45 7 43 6 93 93 SE 5 7 30.06 1018 0 0 0.00 0.00
4:49 am 04:49 Mostly Cloudy with Fog 45 7 43 6 93 93 ESE 5 7 30.06 1018 0 0 0.00 0.00
4:53 am 04:53 Mostly Cloudy with Fog 43 6.1 42 5.6 97 97 ESE 3 6 30.06 1018 0 0 0.00 0.00
5:18 am 05:18 Mostly Cloudy with Fog 45 7 43 6 93 93 Calm 30.06 1018 1 1 0.00 0.00
5:28 am 05:28 Mostly Clear with Mist and Fog 45 7 43 6 93 93 Calm 30.09 1019 1 2 0.00 0.00
5:30 am 05:30 Mostly Clear with Mist and Fog 45 7 43 6 93 93 NE 3 6 30.09 1019 3 4 0.00 0.00
5:37 am 05:37 Clear 45 7.2 43 6.1 93 93 Calm 30.09 1019 8 13 0.00 0.00
5:53 am 05:53 Clear 44 6.7 42 5.6 93 93 NNW 7 11 30.07 1018 10 16 0.00 0.00
6:53 am 06:53 Clear 59 15 32 0 36 36 NNW 14 22 30.07 1018 10 16 0.00 0.00
7:53 am 07:53 Sunny 59 15 32 0 36 36 NNW 13 20 30.08 1019 10 16 0.00 0.00
8:53 am 08:53 Sunny 63 17.2 32 0 31 31 N 13 20 30.09 1019 10 16 0.00 0.00
9:53 am 09:53 Sunny 65 18.3 33 0.6 31 31 N 16 26 30.07 1018 10 16 0.00 0.00
10:53 am 10:53 Sunny 68 20 32 0 26 26 N 18 30 30.05 1018 10 16 0.00 0.00
11:53 am 11:53 Sunny 70 21.1 29 -1.7 22 22 N 16 26 30.03 1017 10 16 0.00 0.00
12:53 pm 12:53 Sunny 73 22.8 32 0 22 22 N 18 30 29.99 1016 10 16 0.00 0.00
1:53 pm 13:53 Sunny 74 23.3 30 -1.1 20 20 N 13 20 29.97 1015 10 16 0.00 0.00
2:53 pm 14:53 Sunny 75 23.9 28 -2.2 18 18 N 13 20 29.95 1014 10 16 0.00 0.00
3:53 pm 15:53 Sunny 75 23.9 30 -1.1 19 19 NNW 10 17 29.93 1014 10 16 0.00 0.00
4:53 pm 16:53 Sunny 73 22.8 35 1.7 25 25 N 9 15 29.92 1013 10 16 0.00 0.00
5:53 pm 17:53 Clear 70 21.1 31 -0.6 23 23 NNW 7 11 29.93 1013 10 16 0.00 0.00
6:53 pm 18:53 Clear 68 20 32 0 26 26 NNW 9 15 29.93 1014 10 16 0.00 0.00
7:53 pm 19:53 Clear 65 18.3 32 0 29 29 NNW 8 13 29.95 1014 10 16 0.00 0.00
8:53 pm 20:53 Clear 64 17.8 30 -1.1 28 28 N 9 15 29.97 1015 10 16 0.00 0.00
9:53 pm 21:53 Clear 62 16.7 30 -1.1 30 30 N 8 13 29.98 1015 10 16 0.00 0.00
10:53 pm 22:53 Clear 63 17.2 30 -1.1 29 29 N 9 15 29.98 1015 10 16 0.00 0.00
11:53 pm 23:53 Clear 63 17.2 30 -1.1 29 29 NNW 14 22 29.96 1015 10 16 0.00 0.00

Powered by AerisWeather